(108375) = 2000 AW223 = 2001 KA20

Discovered at Socorro on 2001-05-22 by LINEAR.

Orbit

Orbit type: Main Belt

Note: WebGL enabled browser required.

epoch2023-09-13.0
epoch JD2460200.5
perihelion date2022-09-09.91978
perihelion JD2459832.41978
argument of perihelion (°)148.76636
ascending node (°)128.06072
inclination (°)8.31976
eccentricity0.1761958
perihelion distance (AU)2.1488200
Tisserand w.r.t. Jupiter3.4
ΔV w.r.t. Earth (km/sec)9.5
semimajor axis (AU)2.6084110
mean anomaly (°)86.11569
mean daily motion (°/day)0.23395900
aphelion distance (AU)3.068
period (years)4.21
P-vector [x]0.12316981
P-vector [y]-0.93773515
P-vector [z]-0.32477990
Q-vector [x]0.98582424
Q-vector [y]0.15318912
Q-vector [z]-0.06843724
absolute magnitude15.66
phase slope0.15
uncertainty0
referenceMPEC 2024-A165
observations used927
oppositions19
arc length (days)8771
first opposition used2000
last opposition used2024
residual rms (arc-secs)0.67
perturbers coarse indicatorM-v
perturbers precise indicator003Ek
first observation date used2000-01-09.0
last observation date used2024-01-14.0
computer nameMPCLINUX
JD of orbit computation2456966.833170
perihelion JD uncertainty (days)6.1161E-05
argument of perihelion uncertainty (°)3.0617E-05
ascending node uncertainty (°)2.5749E-05
inclination uncertainty (°)4.8204E-06
eccentricity uncertainty 4.3458E-08
perihelion distance uncertainty (AU)1.0791E-07
Minimum Orbit Intersection Distances (in AU)
for orbit epoch: 2460200.5, reference: E2024-AG5
Mercury1.69473
Venus1.42635
Earth1.13667
Mars0.71887
Jupiter2.08461
Saturn5.99695
Uranus15.6002
Neptune26.9488

Observations

946 total observations over interval: 2000 01 09.42777 – 2024 01 14.129273
These data are available for download (format description).

Date (UT) J2000 RA J2000 Dec Magn Location Ref
2000 01 09.42777 09 12 56.36 +15 50 06.5 19.5 V 691 – Steward Observatory, Kitt Peak-Spacewatch MPS 9470
2000 01 09.44921 09 12 55.47 +15 50 12.9 19.6 V 691 – Steward Observatory, Kitt Peak-Spacewatch MPS 9470
2000 01 09.47070 09 12 54.61 +15 50 20.0 20.8 V 691 – Steward Observatory, Kitt Peak-Spacewatch MPS 9470
2000 01 12.42570 09 10 52.38 +16 06 08.8 20.5 V 691 – Steward Observatory, Kitt Peak-Spacewatch MPS 9470
2000 01 12.44710 09 10 51.48 +16 06 16.0 20.1 V 691 – Steward Observatory, Kitt Peak-Spacewatch MPS 9470
2000 01 12.46951 09 10 50.48 +16 06 23.2 19.8 V 691 – Steward Observatory, Kitt Peak-Spacewatch MPS 9470
2001 05 22.30722 16 42 59.71 -08 36 59.5 17.8   704 – Lincoln Laboratory ETS, New Mexico MPS 30985
2001 05 22.31749 16 42 59.20 -08 36 59.7 18.9   704 – Lincoln Laboratory ETS, New Mexico MPS 30985
2001 05 22.32774 16 42 58.61 -08 36 58.3 18.3   704 – Lincoln Laboratory ETS, New Mexico MPS 30985
2001 05 22.33807 16 42 58.13 -08 36 58.0 18.3   704 – Lincoln Laboratory ETS, New Mexico MPS 30985
2001 05 22.34849 16 42 57.60 -08 36 57.2 18.5   704 – Lincoln Laboratory ETS, New Mexico MPS 30985
2001 05 23.27015 16 42 11.73 -08 36 12.4 18.5   704 – Lincoln Laboratory ETS, New Mexico MPS 30985
2001 05 23.28132 16 42 11.18 -08 36 12.2 19.1   704 – Lincoln Laboratory ETS, New Mexico MPS 30985
2001 05 23.29248 16 42 10.53 -08 36 11.4 18.8   704 – Lincoln Laboratory ETS, New Mexico MPS 30985
2001 05 23.30365 16 42 09.95 -08 36 11.4 18.9   704 – Lincoln Laboratory ETS, New Mexico MPS 30985
2001 05 23.31482 16 42 09.35 -08 36 11.6 18.9   704 – Lincoln Laboratory ETS, New Mexico MPS 30985
2001 05 24.27395 16 41 20.93 -08 35 31.3 18.6   704 – Lincoln Laboratory ETS, New Mexico MPS 31344
2001 05 24.28580 16 41 20.20 -08 35 30.6 19.1   704 – Lincoln Laboratory ETS, New Mexico MPS 31344
2001 05 24.29768 16 41 19.66 -08 35 31.4 19.3   704 – Lincoln Laboratory ETS, New Mexico MPS 31344
2001 05 24.30954 16 41 19.01 -08 35 29.7 18.7   704 – Lincoln Laboratory ETS, New Mexico MPS 31344
2001 05 24.32140 16 41 18.39 -08 35 29.7 18.8   704 – Lincoln Laboratory ETS, New Mexico MPS 31344
2001 05 26.27074 16 39 37.75 -08 34 38.1 18.9   704 – Lincoln Laboratory ETS, New Mexico MPS 31344
2001 05 26.28211 16 39 37.19 -08 34 37.8 18.9   704 – Lincoln Laboratory ETS, New Mexico MPS 31344
2001 05 26.29341 16 39 36.71 -08 34 37.7 19.1   704 – Lincoln Laboratory ETS, New Mexico MPS 31344
2001 05 26.31595 16 39 35.43 -08 34 37.7 19.1   704 – Lincoln Laboratory ETS, New Mexico MPS 31344
2001 05 29.28873 16 36 58.61 -08 34 28.2 17.7   704 – Lincoln Laboratory ETS, New Mexico MPS 31344
2001 05 29.30018 16 36 57.83 -08 34 28.9 17.1   704 – Lincoln Laboratory ETS, New Mexico MPS 31344
2001 05 29.31151 16 36 57.26 -08 34 28.2 17.2   704 – Lincoln Laboratory ETS, New Mexico MPS 31344
2001 06 15.22724 16 22 23.54 -09 01 57.0 18.0   704 – Lincoln Laboratory ETS, New Mexico MPS 31770
2001 06 15.23905 16 22 22.94 -09 01 59.2 18.2   704 – Lincoln Laboratory ETS, New Mexico MPS 31770
2001 06 15.25077 16 22 22.37 -09 02 01.4 18.5   704 – Lincoln Laboratory ETS, New Mexico MPS 31770
2001 06 15.26308 16 22 21.79 -09 02 03.9 19.0   704 – Lincoln Laboratory ETS, New Mexico MPS 31770
2001 06 15.27471 16 22 21.16 -09 02 05.9 18.9   704 – Lincoln Laboratory ETS, New Mexico MPS 31770
2001 06 16.29210 16 21 34.46 -09 05 18.3 18.3 V 691 – Steward Observatory, Kitt Peak-Spacewatch MPS 31770
2001 06 16.31415 16 21 33.40 -09 05 22.6 18.4 V 691 – Steward Observatory, Kitt Peak-Spacewatch MPS 31770
2001 06 16.33552 16 21 32.38 -09 05 26.6 18.5 V 691 – Steward Observatory, Kitt Peak-Spacewatch MPS 31770
2001 06 21.23642 16 18 04.98 -09 23 20.5 18.2   704 – Lincoln Laboratory ETS, New Mexico MPS 31770
2001 06 21.24900 16 18 04.52 -09 23 22.9 18.5   704 – Lincoln Laboratory ETS, New Mexico MPS 31770
2001 06 21.26127 16 18 04.00 -09 23 25.9 18.7   704 – Lincoln Laboratory ETS, New Mexico MPS 31770
2001 06 21.27499 16 18 03.41 -09 23 29.2 18.5   704 – Lincoln Laboratory ETS, New Mexico MPS 31770
2001 06 21.28840 16 18 02.88 -09 23 32.7 19.4   704 – Lincoln Laboratory ETS, New Mexico MPS 31770
2001 07 14.18007 16 10 25.19 -11 31 26.7 18.6   644 – Palomar Mountain/NEAT MPS 32361
2001 07 14.19102 16 10 25.15 -11 31 31.2 18.7   644 – Palomar Mountain/NEAT MPS 32361
2001 07 14.20196 16 10 25.15 -11 31 35.7 18.8   644 – Palomar Mountain/NEAT MPS 32361
2001 07 14.20316 16 10 25.14 -11 31 36.0 18.7   644 – Palomar Mountain/NEAT MPS 32361
2001 07 14.21438 16 10 25.12 -11 31 40.6 18.8   644 – Palomar Mountain/NEAT MPS 32361
2001 07 14.22457 16 10 25.09 -11 31 44.9 18.8   644 – Palomar Mountain/NEAT MPS 32361
2002 10 31.25662 02 35 00.62 +01 34 31.9 19.3   704 – Lincoln Laboratory ETS, New Mexico MPS 65771
2002 10 31.27369 02 34 59.63 +01 34 28.1 20.2   704 – Lincoln Laboratory ETS, New Mexico MPS 65771
2002 10 31.29081 02 34 58.70 +01 34 23.0 19.7   704 – Lincoln Laboratory ETS, New Mexico MPS 65771
2002 10 31.30789 02 34 57.72 +01 34 19.4 19.4   704 – Lincoln Laboratory ETS, New Mexico MPS 65771
2002 10 31.32504 02 34 56.80 +01 34 15.1 19.5   704 – Lincoln Laboratory ETS, New Mexico MPS 65771
2002 11 05.23918 02 30 29.51 +01 15 20.6 19.1   704 – Lincoln Laboratory ETS, New Mexico MPS 65771
2002 11 05.27230 02 30 27.82 +01 15 13.9 19.8   704 – Lincoln Laboratory ETS, New Mexico MPS 65771
2002 11 05.28897 02 30 26.90 +01 15 10.8 19.6   704 – Lincoln Laboratory ETS, New Mexico MPS 65771
2004 01 21.28022 07 40 49.43 +18 43 35.0 19.4   704 – Lincoln Laboratory ETS, New Mexico MPS 96946
2004 01 21.29168 07 40 48.75 +18 43 37.7 20.1   704 – Lincoln Laboratory ETS, New Mexico MPS 96946
2004 01 21.30339 07 40 47.99 +18 43 42.0 19.3   704 – Lincoln Laboratory ETS, New Mexico MPS 96946
2005 04 01.37847 14 41 10.25 -01 35 07.2 18.5 R 699 – Lowell Observatory-LONEOS MPS 130176
2005 04 01.39468 14 41 09.67 -01 34 59.4   699 – Lowell Observatory-LONEOS MPS 130176
2005 04 01.41089 14 41 09.21 -01 34 53.7   699 – Lowell Observatory-LONEOS MPS 130176
2005 04 01.42710 14 41 08.81 -01 34 48.0   699 – Lowell Observatory-LONEOS MPS 130176
2005 04 04.39711 14 39 41.32 -01 14 43.8 18.0 R 703 – Catalina Sky Survey MPS 130654
2005 04 04.40516 14 39 41.07 -01 14 40.6 18.0 R 703 – Catalina Sky Survey MPS 130654
2005 04 04.41323 14 39 40.78 -01 14 37.3 18.1 R 703 – Catalina Sky Survey MPS 130654
2005 04 04.42126 14 39 40.53 -01 14 34.8 18.0 R 703 – Catalina Sky Survey MPS 130654
2005 04 07.29361 14 38 03.79 -00 55 04.7 18.1 R 699 – Lowell Observatory-LONEOS MPS 130654
2005 04 07.30663 14 38 03.30 -00 54 59.5   699 – Lowell Observatory-LONEOS MPS 130654
2005 04 07.31961 14 38 02.84 -00 54 53.1   699 – Lowell Observatory-LONEOS MPS 130654
2005 04 09.33160 14 36 48.19 -00 41 17.0 18.8   704 – Lincoln Laboratory ETS, New Mexico MPS 131585
2005 04 09.34123 14 36 47.77 -00 41 13.0 19.3   704 – Lincoln Laboratory ETS, New Mexico MPS 131585
2005 04 09.35105 14 36 47.35 -00 41 09.2 18.9   704 – Lincoln Laboratory ETS, New Mexico MPS 131585
2005 04 09.36056 14 36 46.98 -00 41 05.0 19.1   704 – Lincoln Laboratory ETS, New Mexico MPS 131585
2005 04 09.37015 14 36 46.62 -00 41 01.1 18.7   704 – Lincoln Laboratory ETS, New Mexico MPS 131585
2005 04 18.36855 14 30 16.17 +00 17 27.9 18.0   704 – Lincoln Laboratory ETS, New Mexico MPS 132537
2005 04 18.37817 14 30 15.71 +00 17 31.3 18.3   704 – Lincoln Laboratory ETS, New Mexico MPS 132537
2005 04 18.38724 14 30 15.25 +00 17 34.5 18.8   704 – Lincoln Laboratory ETS, New Mexico MPS 132537
2005 04 18.39626 14 30 14.79 +00 17 38.4 18.9   704 – Lincoln Laboratory ETS, New Mexico MPS 132537
2005 04 18.40527 14 30 14.39 +00 17 40.5 18.6   704 – Lincoln Laboratory ETS, New Mexico MPS 132537
2005 05 04.32836 14 16 49.00 +01 37 23.4 18.7 V 703 – Catalina Sky Survey MPS 133251
2005 05 04.33701 14 16 48.50 +01 37 26.1 18.5 V 703 – Catalina Sky Survey MPS 133251
2005 05 04.34582 14 16 48.07 +01 37 26.9 18.6 V 703 – Catalina Sky Survey MPS 133251
2005 05 04.35452 14 16 47.56 +01 37 29.3 18.4 V 703 – Catalina Sky Survey MPS 133251
2005 05 06.23656 14 15 13.25 +01 43 49.4 18.8 R 683 – Goodricke-Pigott Observatory, Tucson MPS 133889
